| time (UTC) | temp C | wind direction | speed KPH | gust KPH | rain 1hr cm | rain 24hr cm | rain mn cm | humidity % | barometer mb |
| 20260905094015 | 17 | 329 | 0.0 | 6.4 | 0.00 | 0.00 | 0.00 | 99 | 1017.1 |
| 20260905093509 | 17 | 71 | 3.2 | 6.4 | 0.00 | 0.00 | 0.00 | 99 | 1016.6 |
| 20260905093007 | 17 | 83 | 6.4 | 9.7 | 0.00 | 0.00 | 0.00 | 99 | 1016.8 |
| 20260905092501 | 17 | 137 | 3.2 | 9.7 | 0.00 | 0.00 | 0.00 | 99 | 1016.6 |
| 20260905091956 | 17 | 18 | 3.2 | 4.8 | 0.00 | 0.00 | 0.00 | 99 | 1016.5 |
| 20260905091450 | 17 | 87 | 4.8 | 6.4 | 0.00 | 0.00 | 0.00 | 99 | 1016.6 |
| 20260905090950 | 17 | 60 | 4.8 | 6.4 | 0.00 | 0.00 | 0.00 | 99 | 1016.7 |
| 20260905090445 | 17 | 44 | 4.8 | 4.8 | 0.00 | 0.00 | 0.00 | 99 | 1016.5 |
| 20260905085944 | 17 | 86 | 8.0 | 12.9 | 0.00 | 0.00 | 0.00 | 99 | 1016.5 |
| 20260905085444 | 17 | 73 | 3.2 | 6.4 | 0.00 | 0.00 | 0.00 | 99 | 1016.6 |
| 20260905084939 | 17 | 90 | 6.4 | 12.9 | 0.00 | 0.00 | 0.00 | 99 | 1016.7 |
| 20260905084439 | 17 | 346 | 1.6 | 6.4 | 0.00 | 0.00 | 0.00 | 99 | 1016.8 |
| 20260905083933 | 17 | 66 | 9.7 | 12.9 | 0.00 | 0.00 | 0.00 | 99 | 1016.7 |
| 20260905083430 | 17 | 75 | 3.2 | 4.8 | 0.00 | 0.00 | 0.00 | 99 | 1017.0 |
| 20260905082925 | 17 | 122 | 3.2 | 9.7 | 0.00 | 0.00 | 0.00 | 99 | 1017.0 |
| 20260905082421 | 17 | 139 | 0.0 | 0.0 | 0.00 | 0.00 | 0.00 | 99 | 1017.5 |
| 20260905081916 | 17 | 167 | 1.6 | 1.6 | 0.00 | 0.00 | 0.00 | 99 | 1017.5 |
| 20260905081411 | 17 | 99 | 3.2 | 6.4 | 0.00 | 0.00 | 0.00 | 99 | 1017.7 |
| 20260905080910 | 17 | 115 | 6.4 | 9.7 | 0.00 | 0.00 | 0.00 | 99 | 1017.5 |
| 20260905080409 | 17 | 81 | 8.0 | 9.7 | 0.00 | 0.00 | 0.00 | 99 | 1017.6 |
| 20260905075908 | 17 | 106 | 3.2 | 4.8 | 0.00 | 0.00 | 0.00 | 99 | 1017.5 |
| 20260905075403 | 17 | 96 | 1.6 | 11.3 | 0.00 | 0.00 | 0.00 | 99 | 1017.7 |
| 20260905074902 | 17 | 88 | 1.6 | 9.7 | 0.00 | 0.00 | 0.00 | 99 | 1017.6 |
| 20260905074358 | 17 | 134 | 1.6 | 4.8 | 0.00 | 0.00 | 0.00 | 99 | 1017.7 |
| 20260905073854 | 17 | 81 | 6.4 | 11.3 | 0.00 | 0.00 | 0.00 | 99 | 1017.8 |
| 20260905073348 | 17 | 123 | 3.2 | 9.7 | 0.00 | 0.00 | 0.00 | 99 | 1017.9 |
| 20260905072843 | 18 | 57 | 3.2 | 6.4 | 0.00 | 0.00 | 0.00 | 99 | 1017.9 |
| 20260905072339 | 18 | 104 | 3.2 | 9.7 | 0.00 | 0.00 | 0.00 | 99 | 1018.0 |
| 20260905071835 | 18 | 87 | 1.6 | 3.2 | 0.00 | 0.00 | 0.00 | 99 | 1017.9 |
| 20260905071331 | 18 | 111 | 6.4 | 6.4 | 0.00 | 0.00 | 0.00 | 99 | 1018.0 |
| 20260905070826 | 18 | 111 | 6.4 | 11.3 | 0.00 | 0.00 | 0.00 | 99 | 1017.8 |
| 20260905070322 | 18 | 86 | 3.2 | 11.3 | 0.00 | 0.00 | 0.00 | 99 | 1017.7 |
| 20260905065821 | 18 | 293 | 3.2 | 9.7 | 0.00 | 0.00 | 0.00 | 99 | 1018.1 |
| 20260905065319 | 18 | 118 | 4.8 | 11.3 | 0.00 | 0.00 | 0.00 | 99 | 1017.9 |
| 20260905064815 | 18 | 87 | 6.4 | 9.7 | 0.00 | 0.00 | 0.00 | 99 | 1017.9 |
| 20260905064310 | 18 | 99 | 4.8 | 4.8 | 0.00 | 0.00 | 0.00 | 99 | 1017.9 |
| 20260905063808 | 18 | 140 | 3.2 | 6.4 | 0.00 | 0.00 | 0.00 | 99 | 1018.0 |
| 20260905063305 | 18 | 79 | 8.0 | 16.1 | 0.00 | 0.00 | 0.00 | 99 | 1017.9 |
| 20260905062801 | 18 | 115 | 1.6 | 6.4 | 0.00 | 0.00 | 0.00 | 99 | 1018.1 |
| 20260905062255 | 18 | 92 | 9.7 | 12.9 | 0.00 | 0.00 | 0.00 | 99 | 1018.2 |
| 20260905061750 | 18 | 71 | 3.2 | 12.9 | 0.00 | 0.00 | 0.00 | 99 | 1018.0 |
| 20260905061249 | 18 | 90 | 4.8 | 6.4 | 0.00 | 0.00 | 0.00 | 99 | 1018.1 |
| 20260905060743 | 18 | 157 | 4.8 | 11.3 | 0.00 | 0.00 | 0.00 | 99 | 1018.1 |
| 20260905060241 | 18 | 148 | 3.2 | 16.1 | 0.00 | 0.00 | 0.00 | 99 | 1018.0 |
| 20260905055739 | 18 | 99 | 6.4 | 9.7 | 0.00 | 0.00 | 0.00 | 99 | 1018.1 |
| 20260905055235 | 18 | 79 | 6.4 | 11.3 | 0.00 | 0.00 | 0.00 | 99 | 1018.3 |
| 20260905054729 | 18 | 94 | 1.6 | 3.2 | 0.00 | 0.00 | 0.00 | 98 | 1018.2 |
| 20260905054226 | 18 | 151 | 3.2 | 6.4 | 0.00 | 0.00 | 0.00 | 98 | 1018.1 |
| 20260905053725 | 18 | 97 | 9.7 | 11.3 | 0.00 | 0.00 | 0.00 | 99 | 1018.1 |
| 20260905053220 | 18 | 116 | 4.8 | 11.3 | 0.00 | 0.00 | 0.00 | 98 | 1018.2 |
| 20260905052714 | 19 | 109 | 1.6 | 3.2 | 0.00 | 0.00 | 0.00 | 99 | 1018.2 |
| 20260905052209 | 19 | 114 | 4.8 | 9.7 | 0.00 | 0.00 | 0.00 | 99 | 1018.2 |
| 20260905051709 | 19 | 79 | 3.2 | 6.4 | 0.00 | 0.00 | 0.00 | 99 | 1018.1 |
| 20260905051206 | 19 | 191 | 1.6 | 3.2 | 0.00 | 0.00 | 0.00 | 98 | 1017.9 |
| 20260905050702 | 19 | 111 | 1.6 | 4.8 | 0.00 | 0.00 | 0.00 | 98 | 1017.8 |
| 20260905050159 | 19 | 90 | 8.0 | 11.3 | 0.00 | 0.00 | 0.00 | 98 | 1017.6 |
| 20260905045653 | 20 | 87 | 6.4 | 9.7 | 0.00 | 0.00 | 0.00 | 98 | 1017.6 |
| 20260905045148 | 20 | 112 | 4.8 | 9.7 | 0.00 | 0.00 | 0.00 | 98 | 1017.6 |
| 20260905044648 | 20 | 71 | 8.0 | 12.9 | 0.00 | 0.00 | 0.00 | 98 | 1017.8 |
| 20260905044143 | 20 | 113 | 3.2 | 9.7 | 0.00 | 0.00 | 0.00 | 98 | 1017.6 |
| 20260905043642 | 20 | 116 | 8.0 | 11.3 | 0.00 | 0.00 | 0.00 | 98 | 1017.6 |
| 20260905043137 | 20 | 105 | 4.8 | 9.7 | 0.00 | 0.00 | 0.00 | 98 | 1017.6 |
| 20260905042636 | 20 | 75 | 3.2 | 11.3 | 0.00 | 0.00 | 0.00 | 98 | 1017.8 |
| 20260905042131 | 20 | 97 | 3.2 | 11.3 | 0.00 | 0.00 | 0.00 | 97 | 1017.7 |
| 20260905041627 | 20 | 104 | 1.6 | 9.7 | 0.00 | 0.00 | 0.00 | 97 | 1017.9 |
| 20260905041123 | 20 | 75 | 3.2 | 9.7 | 0.00 | 0.00 | 0.00 | 97 | 1017.8 |
| 20260905040622 | 20 | 112 | 6.4 | 12.9 | 0.00 | 0.00 | 0.00 | 97 | 1017.8 |
| 20260905040121 | 20 | 82 | 4.8 | 6.4 | 0.00 | 0.00 | 0.00 | 97 | 1017.9 |
| 20260905035616 | 20 | 67 | 0.0 | 6.4 | 0.00 | 0.00 | 0.00 | 96 | 1017.8 |
| 20260905035113 | 20 | 103 | 4.8 | 6.4 | 0.00 | 0.00 | 0.00 | 96 | 1017.8 |
| 20260905034608 | 20 | 1 | 6.4 | 11.3 | 0.00 | 0.00 | 0.00 | 96 | 1017.8 |
| 20260905034102 | 20 | 76 | 1.6 | 6.4 | 0.00 | 0.00 | 0.00 | 96 | 1017.8 |
| 20260905033601 | 21 | 130 | 4.8 | 4.8 | 0.00 | 0.00 | 0.00 | 96 | 1017.8 |
| 20260905033058 | 21 | 78 | 6.4 | 9.7 | 0.00 | 0.00 | 0.00 | 95 | 1017.6 |
| 20260905032557 | 21 | 65 | 1.6 | 11.3 | 0.00 | 0.00 | 0.00 | 95 | 1017.6 |
| 20260905032052 | 21 | 74 | 4.8 | 6.4 | 0.00 | 0.00 | 0.00 | 95 | 1017.6 |
| 20260905031548 | 21 | 125 | 1.6 | 4.8 | 0.00 | 0.00 | 0.00 | 95 | 1017.5 |
| 20260905031048 | 21 | 65 | 3.2 | 4.8 | 0.00 | 0.00 | 0.00 | 95 | 1017.5 |
| 20260905030543 | 21 | 105 | 1.6 | 12.9 | 0.00 | 0.00 | 0.00 | 94 | 1017.6 |
| 20260905030043 | 21 | 35 | 3.2 | 4.8 | 0.00 | 0.00 | 0.00 | 94 | 1017.4 |
| 20260905025538 | 21 | 100 | 1.6 | 6.4 | 0.00 | 0.00 | 0.00 | 94 | 1017.4 |
| 20260905025035 | 22 | 71 | 3.2 | 6.4 | 0.00 | 0.00 | 0.00 | 93 | 1017.2 |
| 20260905024530 | 22 | 51 | 6.4 | 9.7 | 0.00 | 0.00 | 0.00 | 93 | 1017.2 |
| 20260905024025 | 22 | 135 | 0.0 | 3.2 | 0.00 | 0.00 | 0.00 | 93 | 1017.4 |
| 20260905023520 | 22 | 90 | 1.6 | 12.9 | 0.00 | 0.00 | 0.00 | 92 | 1017.1 |
| 20260905023015 | 22 | 104 | 6.4 | 11.3 | 0.00 | 0.00 | 0.00 | 92 | 1017.2 |
| 20260905022515 | 22 | 86 | 1.6 | 9.7 | 0.00 | 0.00 | 0.00 | 91 | 1016.9 |
| 20260905022010 | 22 | 90 | 6.4 | 11.3 | 0.00 | 0.00 | 0.00 | 91 | 1016.7 |
| 20260905021509 | 22 | 74 | 3.2 | 9.7 | 0.00 | 0.00 | 0.00 | 90 | 1016.7 |
| 20260905021005 | 23 | 47 | 6.4 | 6.4 | 0.00 | 0.00 | 0.00 | 90 | 1016.9 |
| 20260905020459 | 23 | 84 | 4.8 | 4.8 | 0.00 | 0.00 | 0.00 | 89 | 1016.6 |
| 20260905015953 | 23 | 77 | 0.0 | 1.6 | 0.00 | 0.00 | 0.00 | 88 | 1016.7 |
| 20260905015451 | 23 | 117 | 3.2 | 4.8 | 0.00 | 0.00 | 0.00 | 87 | 1016.5 |
| 20260905014945 | 23 | 85 | 1.6 | 4.8 | 0.00 | 0.00 | 0.00 | 87 | 1016.3 |
| 20260905014441 | 23 | 76 | 3.2 | 6.4 | 0.00 | 0.00 | 0.00 | 87 | 1016.3 |
| 20260905013936 | 23 | 145 | 1.6 | 4.8 | 0.00 | 0.00 | 0.00 | 86 | 1016.2 |
| 20260905013433 | 23 | 88 | 4.8 | 6.4 | 0.00 | 0.00 | 0.00 | 86 | 1016.2 |
| 20260905012933 | 23 | 52 | 8.0 | 9.7 | 0.00 | 0.00 | 0.00 | 86 | 1016.1 |
| 20260905012428 | 23 | 90 | 0.0 | 1.6 | 0.00 | 0.00 | 0.00 | 86 | 1015.9 |
| 20260905011925 | 23 | 62 | 3.2 | 3.2 | 0.00 | 0.00 | 0.00 | 86 | 1016.0 |
| 20260905011421 | 23 | 93 | 1.6 | 1.6 | 0.00 | 0.00 | 0.00 | 86 | 1016.1 |
| 20260905010916 | 24 | 145 | 0.0 | 0.0 | 0.00 | 0.00 | 0.00 | 85 | 1016.3 |
| 20260905010411 | 24 | 90 | 1.6 | 3.2 | 0.00 | 0.00 | 0.00 | 84 | 1016.2 |
| 20260905005907 | 25 | 90 | 1.6 | 6.4 | 0.00 | 0.00 | 0.00 | 83 | 1016.3 |
| 20260905005403 | 25 | 54 | 3.2 | 4.8 | 0.00 | 0.00 | 0.00 | 83 | 1016.1 |
| 20260905004857 | 25 | 144 | 1.6 | 4.8 | 0.00 | 0.00 | 0.00 | 82 | 1015.9 |
| 20260905004352 | 25 | 121 | 0.0 | 4.8 | 0.00 | 0.00 | 0.00 | 82 | 1016.1 |
| 20260905003847 | 25 | 149 | 0.0 | 3.2 | 0.00 | 0.00 | 0.00 | 82 | 1015.9 |
| 20260905003343 | 25 | 93 | 1.6 | 3.2 | 0.00 | 0.00 | 0.00 | 81 | 1016.2 |
| 20260905002838 | 25 | 91 | 1.6 | 4.8 | 0.00 | 0.00 | 0.00 | 81 | 1016.0 |
| 20260905002338 | 25 | 127 | 0.0 | 1.6 | 0.00 | 0.00 | 0.00 | 81 | 1016.0 |
| 20260905001832 | 25 | 21 | 1.6 | 4.8 | 0.00 | 0.00 | 0.00 | 80 | 1016.0 |
| 20260905001327 | 26 | 151 | 0.0 | 1.6 | 0.00 | 0.00 | 0.00 | 80 | 1016.1 |
| 20260905000823 | 26 | 137 | 1.6 | 3.2 | 0.00 | 0.00 | 0.00 | 79 | 1016.2 |
| 20260905000318 | 26 | 119 | 0.0 | 1.6 | 0.00 | 0.00 | 0.00 | 78 | 1015.8 |
| 20260904235812 | 26 | 139 | 0.0 | 3.2 | 0.00 | 0.00 | 0.00 | 77 | 1016.0 |
| 20260904235307 | 26 | 113 | 1.6 | 3.2 | 0.00 | 0.00 | 0.00 | 76 | 1015.9 |
| 20260904234802 | 27 | 112 | 1.6 | 4.8 | 0.00 | 0.00 | 0.00 | 75 | 1015.9 |
| 20260904234252 | 27 | 109 | 1.6 | 4.8 | 0.00 | 0.00 | 0.00 | 74 | 1015.9 |
| 20260904233747 | 27 | 82 | 1.6 | 4.8 | 0.00 | 0.00 | 0.00 | 72 | 1015.9 |
| 20260904233238 | 28 | 81 | 4.8 | 6.4 | 0.00 | 0.00 | 0.00 | 71 | 1015.9 |
| 20260904232734 | 28 | 147 | 4.8 | 6.4 | 0.00 | 0.00 | 0.00 | 71 | 1015.8 |
| 20260904232230 | 28 | 91 | 3.2 | 9.7 | 0.00 | 0.00 | 0.00 | 70 | 1015.7 |
| 20260904231725 | 28 | 28 | 4.8 | 6.4 | 0.00 | 0.00 | 0.00 | 69 | 1015.7 |
| 20260904231220 | 28 | 45 | 3.2 | 6.4 | 0.00 | 0.00 | 0.00 | 70 | 1015.6 |
| 20260904230715 | 28 | 57 | 4.8 | 6.4 | 0.00 | 0.00 | 0.00 | 68 | 1015.7 |
| 20260904230209 | 28 | 98 | 3.2 | 9.7 | 0.00 | 0.00 | 0.00 | 68 | 1015.6 |
| 20260904225708 | 29 | 54 | 8.0 | 12.9 | 0.00 | 0.00 | 0.00 | 67 | 1015.5 |
| 20260904225202 | 28 | 121 | 1.6 | 4.8 | 0.00 | 0.00 | 0.00 | 68 | 1015.5 |
| 20260904224656 | 28 | 88 | 3.2 | 6.4 | 0.00 | 0.00 | 0.00 | 68 | 1015.5 |
| 20260904224151 | 29 | 171 | 3.2 | 11.3 | 0.00 | 0.00 | 0.00 | 66 | 1015.7 |
| 20260904223650 | 29 | 135 | 11.3 | 12.9 | 0.00 | 0.00 | 0.00 | 66 | 1015.7 |
| 20260904223146 | 29 | 95 | 6.4 | 6.4 | 0.00 | 0.00 | 0.00 | 65 | 1015.6 |
| 20260904222642 | 28 | 75 | 3.2 | 9.7 | 0.00 | 0.00 | 0.00 | 67 | 1015.5 |
| 20260904222137 | 29 | 99 | 8.0 | 11.3 | 0.00 | 0.00 | 0.00 | 67 | 1015.5 |
| 20260904221636 | 29 | 8 | 6.4 | 11.3 | 0.00 | 0.00 | 0.00 | 67 | 1015.6 |
| 20260904221131 | 29 | 80 | 6.4 | 14.5 | 0.00 | 0.00 | 0.00 | 67 | 1015.4 |
| 20260904220626 | 29 | 83 | 4.8 | 9.7 | 0.00 | 0.00 | 0.00 | 64 | 1015.5 |
| 20260904220121 | 30 | 91 | 6.4 | 11.3 | 0.00 | 0.00 | 0.00 | 65 | 1015.6 |
| 20260904215616 | 29 | 26 | 6.4 | 11.3 | 0.00 | 0.00 | 0.00 | 65 | 1015.4 |
| 20260904215112 | 29 | 80 | 3.2 | 11.3 | 0.00 | 0.00 | 0.00 | 68 | 1015.5 |
| 20260904214607 | 30 | 52 | 3.2 | 4.8 | 0.00 | 0.00 | 0.00 | 65 | 1015.4 |
| 20260904214103 | 30 | 86 | 3.2 | 6.4 | 0.00 | 0.00 | 0.00 | 65 | 1015.5 |
| 20260904213600 | 29 | 266 | 1.6 | 6.4 | 0.00 | 0.00 | 0.00 | 66 | 1015.4 |
| 20260904213057 | 30 | 55 | 9.7 | 11.3 | 0.00 | 0.00 | 0.00 | 64 | 1015.5 |
| 20260904212556 | 29 | 209 | 1.6 | 6.4 | 0.00 | 0.00 | 0.00 | 66 | 1015.6 |
| 20260904212052 | 30 | 98 | 8.0 | 11.3 | 0.00 | 0.00 | 0.00 | 67 | 1015.7 |
| 20260904211551 | 29 | 55 | 6.4 | 9.7 | 0.00 | 0.00 | 0.00 | 68 | 1015.6 |
| 20260904211047 | 29 | 139 | 3.2 | 4.8 | 0.00 | 0.00 | 0.00 | 68 | 1015.7 |
| 20260904210546 | 30 | 328 | 4.8 | 9.7 | 0.00 | 0.00 | 0.00 | 67 | 1015.5 |
| 20260904210042 | 29 | 103 | 4.8 | 6.4 | 0.00 | 0.00 | 0.00 | 67 | 1015.4 |
| 20260904205536 | 30 | 107 | 3.2 | 4.8 | 0.00 | 0.00 | 0.00 | 68 | 1015.6 |
| 20260904205033 | 30 | 6 | 3.2 | 6.4 | 0.00 | 0.00 | 0.00 | 69 | 1015.4 |
| 20260904204529 | 29 | 358 | 3.2 | 4.8 | 0.00 | 0.00 | 0.00 | 68 | 1015.5 |
| 20260904204025 | 29 | 41 | 1.6 | 3.2 | 0.00 | 0.00 | 0.00 | 68 | 1015.6 |
| 20260904203520 | 29 | 188 | 0.0 | 9.7 | 0.00 | 0.00 | 0.00 | 70 | 1015.5 |
| 20260904203017 | 28 | 76 | 4.8 | 11.3 | 0.00 | 0.00 | 0.00 | 70 | 1015.6 |
| 20260904202512 | 29 | 17 | 4.8 | 9.7 | 0.00 | 0.00 | 0.00 | 69 | 1015.5 |
| 20260904202008 | 29 | 42 | 3.2 | 16.1 | 0.00 | 0.00 | 0.00 | 74 | 1015.7 |
| 20260904201503 | 29 | 14 | 3.2 | 4.8 | 0.00 | 0.00 | 0.00 | 72 | 1015.7 |
| 20260904200959 | 28 | 74 | 3.2 | 9.7 | 0.00 | 0.00 | 0.00 | 71 | 1015.7 |
| 20260904200457 | 28 | 333 | 3.2 | 12.9 | 0.00 | 0.00 | 0.00 | 73 | 1015.6 |
| 20260904195952 | 28 | 103 | 3.2 | 4.8 | 0.00 | 0.00 | 0.00 | 71 | 1015.6 |
| 20260904195450 | 28 | 299 | 3.2 | 9.7 | 0.00 | 0.00 | 0.00 | 74 | 1015.6 |
| 20260904194949 | 28 | 86 | 3.2 | 4.8 | 0.00 | 0.00 | 0.00 | 72 | 1015.5 |
| 20260904194444 | 27 | 32 | 1.6 | 9.7 | 0.00 | 0.00 | 0.00 | 76 | 1015.5 |
| 20260904193939 | 27 | 66 | 3.2 | 4.8 | 0.00 | 0.00 | 0.00 | 75 | 1015.5 |
| 20260904193435 | 27 | 1 | 6.4 | 11.3 | 0.00 | 0.00 | 0.00 | 77 | 1015.3 |
| 20260904192930 | 27 | 84 | 4.8 | 9.7 | 0.00 | 0.00 | 0.00 | 76 | 1015.4 |
| 20260904192425 | 27 | 223 | 0.0 | 9.7 | 0.00 | 0.00 | 0.00 | 78 | 1015.7 |
| 20260904191922 | 27 | 53 | 6.4 | 9.7 | 0.00 | 0.00 | 0.00 | 79 | 1015.5 |
| 20260904191418 | 27 | 131 | 6.4 | 11.3 | 0.00 | 0.00 | 0.00 | 79 | 1015.8 |
| 20260904190914 | 27 | 155 | 3.2 | 9.7 | 0.00 | 0.00 | 0.00 | 79 | 1015.6 |
| 20260904190409 | 26 | 151 | 3.2 | 9.7 | 0.00 | 0.00 | 0.00 | 81 | 1015.6 |
| 20260904185906 | 27 | 340 | 1.6 | 9.7 | 0.00 | 0.00 | 0.00 | 80 | 1015.9 |
| 20260904185401 | 26 | 65 | 1.6 | 11.3 | 0.00 | 0.00 | 0.00 | 82 | 1015.9 |
| 20260904184901 | 26 | 121 | 6.4 | 9.7 | 0.00 | 0.00 | 0.00 | 81 | 1015.7 |
| 20260904184356 | 26 | 19 | 3.2 | 6.4 | 0.00 | 0.00 | 0.00 | 82 | 1015.7 |
| 20260904183851 | 25 | 40 | 6.4 | 9.7 | 0.00 | 0.00 | 0.00 | 83 | 1015.7 |
| 20260904183346 | 25 | 22 | 8.0 | 11.3 | 0.00 | 0.00 | 0.00 | 84 | 1015.9 |
| 20260904182842 | 25 | 1 | 8.0 | 9.7 | 0.00 | 0.00 | 0.00 | 83 | 1015.8 |
| 20260904182336 | 25 | 107 | 3.2 | 11.3 | 0.00 | 0.00 | 0.00 | 86 | 1016.0 |
| 20260904181832 | 25 | 75 | 4.8 | 9.7 | 0.00 | 0.00 | 0.00 | 87 | 1016.1 |
| 20260904181332 | 25 | 86 | 6.4 | 9.7 | 0.00 | 0.00 | 0.00 | 86 | 1016.2 |
| 20260904180827 | 25 | 119 | 4.8 | 9.7 | 0.00 | 0.00 | 0.00 | 86 | 1016.2 |
| 20260904180323 | 24 | 34 | 4.8 | 9.7 | 0.00 | 0.00 | 0.00 | 87 | 1016.1 |
| 20260904175821 | 24 | 66 | 3.2 | 4.8 | 0.00 | 0.00 | 0.00 | 88 | 1016.1 |
| 20260904175320 | 24 | 0 | 1.6 | 6.4 | 0.00 | 0.00 | 0.00 | 87 | 1016.1 |
| 20260904174815 | 24 | 64 | 6.4 | 11.3 | 0.00 | 0.00 | 0.00 | 88 | 1016.0 |
| 20260904174311 | 23 | 38 | 8.0 | 12.9 | 0.00 | 0.00 | 0.00 | 88 | 1016.1 |
| 20260904173807 | 23 | 92 | 6.4 | 14.5 | 0.00 | 0.00 | 0.00 | 90 | 1016.1 |
| 20260904173302 | 23 | 15 | 3.2 | 11.3 | 0.00 | 0.00 | 0.00 | 90 | 1015.9 |
| 20260904172758 | 23 | 85 | 3.2 | 11.3 | 0.00 | 0.00 | 0.00 | 91 | 1015.8 |
| 20260904172257 | 23 | 38 | 4.8 | 9.7 | 0.00 | 0.00 | 0.00 | 92 | 1016.0 |
| 20260904171752 | 23 | 64 | 8.0 | 11.3 | 0.00 | 0.00 | 0.00 | 92 | 1016.1 |
| 20260904171248 | 23 | 91 | 4.8 | 9.7 | 0.00 | 0.00 | 0.00 | 92 | 1016.0 |
| 20260904170744 | 22 | 92 | 4.8 | 12.9 | 0.00 | 0.00 | 0.00 | 93 | 1016.3 |
| 20260904170239 | 22 | 63 | 6.4 | 9.7 | 0.00 | 0.00 | 0.00 | 94 | 1015.8 |
| 20260904165738 | 23 | 54 | 8.0 | 12.9 | 0.00 | 0.00 | 0.00 | 93 | 1015.6 |
| 20260904165232 | 22 | 65 | 4.8 | 11.3 | 0.00 | 0.00 | 0.00 | 94 | 1015.7 |
| 20260904164732 | 22 | 16 | 4.8 | 4.8 | 0.00 | 0.00 | 0.00 | 95 | 1015.8 |
| 20260904164227 | 22 | 198 | 1.6 | 4.8 | 0.00 | 0.00 | 0.00 | 96 | 1015.7 |
| 20260904163724 | 22 | 3 | 3.2 | 9.7 | 0.00 | 0.00 | 0.00 | 97 | 1015.6 |
| 20260904163219 | 21 | 11 | 4.8 | 4.8 | 0.00 | 0.00 | 0.00 | 97 | 1015.7 |
| 20260904162718 | 21 | 36 | 6.4 | 9.7 | 0.00 | 0.00 | 0.00 | 98 | 1015.6 |
| 20260904162213 | 21 | 27 | 6.4 | 6.4 | 0.00 | 0.00 | 0.00 | 99 | 1015.6 |
| 20260904161708 | 21 | 43 | 6.4 | 6.4 | 0.00 | 0.00 | 0.00 | 99 | 1015.6 |
| 20260904161203 | 20 | 26 | 1.6 | 6.4 | 0.00 | 0.00 | 0.00 | 99 | 1015.4 |
| 20260904160700 | 20 | 50 | 3.2 | 9.7 | 0.00 | 0.00 | 0.00 | 99 | 1015.3 |
| 20260904160154 | 20 | 27 | 3.2 | 6.4 | 0.00 | 0.00 | 0.00 | 99 | 1015.4 |
| 20260904155649 | 20 | 28 | 3.2 | 6.4 | 0.00 | 0.00 | 0.00 | 99 | 1015.5 |
| 20260904155148 | 20 | 25 | 6.4 | 6.4 | 0.00 | 0.00 | 0.00 | 99 | 1015.4 |
| 20260904154647 | 20 | 116 | 3.2 | 4.8 | 0.00 | 0.00 | 0.00 | 99 | 1015.4 |
| 20260904154142 | 20 | 265 | 0.0 | 6.4 | 0.00 | 0.00 | 0.00 | 99 | 1015.4 |
| 20260904153637 | 20 | 340 | 4.8 | 9.7 | 0.00 | 0.00 | 0.00 | 99 | 1015.4 |
| 20260904153137 | 19 | 104 | 3.2 | 4.8 | 0.00 | 0.00 | 0.00 | 99 | 1015.2 |
| 20260904152634 | 19 | 38 | 4.8 | 9.7 | 0.00 | 0.00 | 0.00 | 99 | 1015.4 |
| 20260904152129 | 19 | 76 | 3.2 | 6.4 | 0.00 | 0.00 | 0.00 | 99 | 1015.5 |
| 20260904151624 | 19 | 88 | 8.0 | 12.9 | 0.00 | 0.00 | 0.00 | 99 | 1015.4 |
| 20260904151123 | 19 | 100 | 3.2 | 6.4 | 0.00 | 0.00 | 0.00 | 99 | 1015.3 |
| 20260904150619 | 19 | 87 | 1.6 | 4.8 | 0.00 | 0.00 | 0.00 | 99 | 1015.2 |
| 20260904150114 | 18 | 66 | 3.2 | 6.4 | 0.00 | 0.00 | 0.00 | 99 | 1015.1 |
| 20260904145612 | 19 | 5 | 1.6 | 4.8 | 0.00 | 0.00 | 0.00 | 99 | 1015.2 |
| 20260904145108 | 18 | 5 | 3.2 | 4.8 | 0.00 | 0.00 | 0.00 | 99 | 1015.3 |
| 20260904144604 | 18 | 33 | 3.2 | 3.2 | 0.00 | 0.00 | 0.00 | 99 | 1015.2 |
| 20260904144059 | 18 | 98 | 1.6 | 4.8 | 0.00 | 0.00 | 0.00 | 99 | 1015.3 |
| 20260904143555 | 18 | 80 | 1.6 | 3.2 | 0.00 | 0.00 | 0.00 | 99 | 1015.1 |
| 20260904143051 | 18 | 54 | 3.2 | 9.7 | 0.00 | 0.00 | 0.00 | 99 | 1015.0 |
| 20260904142548 | 18 | 36 | 1.6 | 4.8 | 0.00 | 0.00 | 0.00 | 99 | 1015.1 |
| 20260904142043 | 18 | 4 | 1.6 | 4.8 | 0.00 | 0.00 | 0.00 | 99 | 1014.7 |
| 20260904141538 | 18 | 39 | 3.2 | 4.8 | 0.00 | 0.00 | 0.00 | 99 | 1014.6 |
| 20260904141034 | 18 | 9 | 3.2 | 6.4 | 0.00 | 0.00 | 0.00 | 99 | 1014.7 |
| 20260904140533 | 18 | 327 | 3.2 | 3.2 | 0.00 | 0.00 | 0.00 | 99 | 1014.6 |
| 20260904140028 | 18 | 100 | 3.2 | 3.2 | 0.00 | 0.00 | 0.00 | 99 | 1014.6 |
| 20260904135527 | 18 | 43 | 3.2 | 9.7 | 0.00 | 0.00 | 0.00 | 99 | 1014.5 |
| 20260904135024 | 18 | 37 | 1.6 | 4.8 | 0.00 | 0.00 | 0.00 | 99 | 1014.4 |
| 20260904134519 | 18 | 78 | 3.2 | 4.8 | 0.00 | 0.00 | 0.00 | 99 | 1014.3 |
| 20260904134013 | 18 | 85 | 3.2 | 4.8 | 0.00 | 0.00 | 0.00 | 99 | 1014.3 |
| 20260904133507 | 18 | 121 | 1.6 | 3.2 | 0.00 | 0.00 | 0.00 | 99 | 1014.2 |
| 20260904133003 | 18 | 56 | 1.6 | 4.8 | 0.00 | 0.00 | 0.00 | 99 | 1014.1 |
| 20260904132458 | 18 | 344 | 1.6 | 4.8 | 0.00 | 0.00 | 0.00 | 99 | 1014.2 |
| 20260904131957 | 18 | 23 | 3.2 | 6.4 | 0.00 | 0.00 | 0.00 | 99 | 1014.2 |
| 20260904131452 | 18 | 359 | 3.2 | 4.8 | 0.00 | 0.00 | 0.00 | 99 | 1014.4 |
| 20260904130948 | 18 | 14 | 3.2 | 6.4 | 0.00 | 0.00 | 0.00 | 99 | 1014.2 |
| 20260904130447 | 18 | 82 | 1.6 | 3.2 | 0.00 | 0.00 | 0.00 | 99 | 1014.2 |
| 20260904125942 | 18 | 102 | 1.6 | 3.2 | 0.00 | 0.00 | 0.00 | 99 | 1014.2 |
| 20260904125438 | 18 | 2 | 3.2 | 3.2 | 0.00 | 0.00 | 0.00 | 99 | 1014.1 |
| 20260904124933 | 18 | 349 | 3.2 | 6.4 | 0.00 | 0.00 | 0.00 | 99 | 1013.7 |
| 20260904124429 | 18 | 258 | 1.6 | 3.2 | 0.00 | 0.00 | 0.00 | 99 | 1013.8 |
| 20260904123924 | 18 | 65 | 3.2 | 6.4 | 0.00 | 0.00 | 0.00 | 99 | 1013.6 |
| 20260904123419 | 18 | 9 | 1.6 | 3.2 | 0.00 | 0.00 | 0.00 | 99 | 1013.5 |
| 20260904122914 | 18 | 4 | 3.2 | 4.8 | 0.00 | 0.00 | 0.00 | 99 | 1013.5 |
| 20260904122414 | 18 | 87 | 3.2 | 3.2 | 0.00 | 0.00 | 0.00 | 99 | 1013.5 |
| 20260904121908 | 18 | 101 | 1.6 | 3.2 | 0.00 | 0.00 | 0.00 | 99 | 1013.4 |
| 20260904121405 | 18 | 331 | 3.2 | 4.8 | 0.00 | 0.00 | 0.00 | 99 | 1013.3 |
| 20260904120901 | 18 | 295 | 0.0 | 3.2 | 0.00 | 0.00 | 0.00 | 99 | 1013.4 |
| 20260904120357 | 18 | 26 | 3.2 | 3.2 | 0.00 | 0.00 | 0.00 | 99 | 1013.5 |
| 20260904115851 | 18 | 328 | 1.6 | 3.2 | 0.00 | 0.00 | 0.00 | 99 | 1013.4 |
| 20260904115346 | 18 | 36 | 0.0 | 1.6 | 0.00 | 0.00 | 0.00 | 99 | 1013.2 |
| 20260904114841 | 18 | 58 | 0.0 | 3.2 | 0.00 | 0.00 | 0.00 | 99 | 1013.2 |
| 20260904114336 | 18 | 150 | 0.0 | 1.6 | 0.00 | 0.00 | 0.00 | 99 | 1013.3 |
| 20260904113831 | 18 | 154 | 0.0 | 0.0 | 0.00 | 0.00 | 0.00 | 99 | 1013.2 |
| 20260904113330 | 18 | 116 | 1.6 | 4.8 | 0.00 | 0.00 | 0.00 | 99 | 1013.1 |
| 20260904112825 | 18 | 88 | 1.6 | 3.2 | 0.00 | 0.00 | 0.00 | 99 | 1012.8 |
| 20260904112320 | 18 | 194 | 0.0 | 1.6 | 0.00 | 0.00 | 0.00 | 99 | 1012.9 |
| 20260904111816 | 18 | 99 | 1.6 | 4.8 | 0.00 | 0.00 | 0.00 | 99 | 1012.9 |
| 20260904111311 | 18 | 77 | 1.6 | 1.6 | 0.00 | 0.00 | 0.00 | 99 | 1012.7 |
| 20260904110807 | 18 | 95 | 4.8 | 6.4 | 0.00 | 0.00 | 0.00 | 99 | 1012.8 |
| 20260904110306 | 18 | 82 | 3.2 | 3.2 | 0.00 | 0.00 | 0.00 | 99 | 1012.8 |
| 20260904105801 | 18 | 70 | 3.2 | 4.8 | 0.00 | 0.00 | 0.00 | 99 | 1012.6 |
| 20260904105256 | 18 | 55 | 6.4 | 6.4 | 0.00 | 0.00 | 0.00 | 99 | 1012.8 |
| 20260904104751 | 18 | 80 | 1.6 | 6.4 | 0.00 | 0.00 | 0.00 | 99 | 1012.7 |
| 20260904104247 | 18 | 68 | 1.6 | 4.8 | 0.00 | 0.00 | 0.00 | 99 | 1012.9 |
| 20260904103743 | 18 | 43 | 1.6 | 3.2 | 0.00 | 0.00 | 0.00 | 99 | 1012.9 |
| 20260904103237 | 18 | 114 | 0.0 | 3.2 | 0.00 | 0.00 | 0.00 | 99 | 1012.6 |
| 20260904102733 | 18 | 116 | 3.2 | 4.8 | 0.00 | 0.00 | 0.00 | 99 | 1012.6 |
| 20260904102229 | 18 | 102 | 1.6 | 6.4 | 0.00 | 0.00 | 0.00 | 99 | 1012.5 |
| 20260904101725 | 18 | 65 | 3.2 | 9.7 | 0.00 | 0.00 | 0.00 | 99 | 1012.7 |
| 20260904101220 | 18 | 79 | 1.6 | 6.4 | 0.00 | 0.00 | 0.00 | 99 | 1012.5 |
| 20260904100717 | 18 | 94 | 4.8 | 9.7 | 0.00 | 0.00 | 0.00 | 99 | 1012.8 |
| 20260904100212 | 18 | 69 | 4.8 | 6.4 | 0.00 | 0.00 | 0.00 | 99 | 1012.6 |
| 20260904095711 | 18 | 49 | 6.4 | 9.7 | 0.00 | 0.00 | 0.00 | 99 | 1012.5 |
| 20260904095206 | 18 | 66 | 1.6 | 3.2 | 0.00 | 0.00 | 0.00 | 99 | 1012.8 |
| 20260904094701 | 18 | 94 | 3.2 | 4.8 | 0.00 | 0.00 | 0.00 | 99 | 1012.6 |